Location: Unspecified
(0.0000°N, 0.0000°E)
Time: 19:37:10
(UTC+00:00)

Vanguard 1 Rocket - Pass Details

Date: 21 April 2026
Orbit: 655 x 4212 km, 34.3° (Epoch: 17 May)

Event Time Altitude Azimuth Distance (km) Brightness Sun altitude
Rises 19:40:50 0° 263° (W) 6,383 12.8 -24.9°
Reaches altitude 10° 19:44:59 10° 271° (W) 5,799 12.4 -25.9°
Maximum altitude 20:02:54 39° 333° (NNW) 5,063 11.3 -30.3°
Drops below altitude 10° 20:26:18 10° 36° (NE) 7,265 11.8 -36.0°
Sets 20:32:38 0° 44° (NE) 8,047 12.0 -37.5°
